Regional Weather Roundup
Issued by NWS Kansas City/Pleasant Hill, MO

Home | Current Version | Previous Version | Text Only | Print | Product List | Glossary On
Versions: 1 2 3 4 5 6 7 8 9 10 11 12 13 14 15 16 17 18 19 20 21 22 23 24 25 26 27 28 29 30 31 32 33 34 35 36 37 38 39 40 41 42 43 44 45 46 47 48 49 50
000
ASUS43 KEAX 011510
RWREAX

WEATHER ROUNDUP FOR EASTERN KANSAS AND NORTHWEST MISSOURI
NATIONAL WEATHER SERVICE KANSAS CITY/PLEASANT HILL MO
1000 AM CDT SAT OCT 01 2016

KSZ040-057-103>105-MOZ028-029-037-043-011600-
...KANSAS CITY METROPOLITAN AREA...

CITY           SKY/WX    TMP DP  RH WIND       PRES   REMARKS
K.C. INTL      CLOUDY    60  55  83 N3        30.13S
K.C. DOWNTOWN  CLOUDY    62  56  80 CALM      30.13R
LEES SUMMIT    CLOUDY    61  57  87 CALM      30.14R
OLATHE - IXD   SUNNY     62  57  83 VRB3      30.14S
OLATHE - OJC   SUNNY     62  55  77 CALM      30.13S
LAWRENCE       MOSUNNY   59  58  96 CALM      30.14R

$$

MOZ001>008-011>017-020>025-030>033-038>040-044>046-053-054-011600-
...NORTHERN AND CENTRAL MISSOURI...

CITY           SKY/WX    TMP DP  RH WIND       PRES   REMARKS
ST. JOSEPH     CLOUDY    59  56  89 CALM      30.13S
MOSBY          CLOUDY    61  57  88 CALM      30.13R
WHITEMAN AFB   CLOUDY    60  60 100 CALM      30.12R
CLINTON        CLOUDY    59  59 100 CALM      30.13R
SEDALIA        CLOUDY    61  57  87 W3        30.13S
WARSAW         NOT AVBL
CHILLICOTHE      N/A     63  58  83 N5        30.13R
KIRKSVILLE     CLOUDY    63  57  81 N7        30.10S

$$

MOZ041-047>049-056>058-063>065-088>090-097-011600-
...EASTERN AND SOUTHERN MISSOURI...

CITY           SKY/WX    TMP DP  RH WIND       PRES   REMARKS
ST. LOUIS INTL CLOUDY    66  60  81 W9        30.06S
SPIRIT OF STL  CLOUDY    63  60  90 NW6       30.07R
COLUMBIA       CLOUDY    62  58  86 NW8       30.11S
JEFFERSON CITY CLOUDY    63  57  81 W7        30.10S
ROLLA          CLOUDY    59  57  93 W6        30.10S
OSAGE BEACH    CLOUDY    61  58  90 CALM      30.13R
SPRINGFIELD    SUNNY     65  56  72 CALM      30.12R
BRANSON        MOSUNNY   64  55  72 CALM      30.14R
JOPLIN         SUNNY     64  58  80 CALM      30.13R
WEST PLAINS    CLOUDY    61  56  83 CALM      30.14R

$$

IAZ060-094-KSZ022-034>040-054-083-096-NEZ052-066-093-011600-
...KANSAS...SOUTHEAST NEBRASKA AND IOWA...

CITY           SKY/WX    TMP DP  RH WIND       PRES   REMARKS
TOPEKA         MOSUNNY   59  56  89 CALM      30.14S
MANHATTAN      MOSUNNY   58  55  90 E3        30.14S
EMPORIA        CLOUDY    58  55  90 E3        30.14R
CHANUTE        MOSUNNY   65  56  72 CALM      30.13S
WICHITA        CLOUDY    63  53  70 E3        30.13R
OMAHA          CLOUDY    61  55  81 N5        30.14S
LINCOLN        SUNNY     59  54  83 E3        30.16S
FALLS CITY     CLOUDY    59  56  89 NW5       30.13S
LAMONI         CLOUDY    60  58  92 N7        30.12S
DES MOINES     CLOUDY    62  58  86 N6        30.12S

$$




USA.gov is the U.S. government's official web portal to all federal, state and local government web resources and services.